BREEZE-M DEB, 41318

Orbit data source: Space-Track

BREEZE-M DEB, 41318 is space debris in HEO originally from a launch on Thu, 17 May 2012 UTC launched from the Tyuratam Missile And Space Complex (TTMTR). Debris objects in space refer to the collection of defunct objects orbiting the Earth. Examples of debris include non-operational satellites, rocket bodies, and fragments generated from explosions, collisions, or faulty payload assembly.

Loading next visibility...
Identifier
41318, 2012-026E
Orbit
HEO
Country
Flag of CISCIS
Related business
Manufacturer
Khrunichev
Mission
Spacecraft
Bus & Motor
Unknown
Mass
Unknown
Launch date (UTC)
2012-05-17 (13 years ago)
Launch vehicle
Unknown
Launch site
Tyuratam Missile And Space Complex (TTMTR)
Object type
Payload
Rocket body
Debris
Shape & HBR
Unknown
Radar Cross Section
RCS unknown

Expand to show TLE details & history
Last TLE update: 2 days ago

TLE from 2 days ago
0 BREEZE-M DEB
1 41318U 12026E   25259.67465766 -.00000140  00000-0  00000-0 0  9994
2 41318   9.9949 163.0697 4094587 357.7055   0.9076  1.76519630 62367
Epoch: 2025-09-16T16:11Z
TLE epoch observation values (Epoch: 2025-09-16T16:11:30.421Z)
Latitude
0.00001°
Longitude
-75.67263°
Altitude
10,680.264 km
Speed
5.74 km/s
True Right ascension
10h 52m 15s
True Declination
0° 00' 00"
Sunlit
Object was in daylight at epoch
Visualization orbit readout
Latitude
Unknown
Longitude
Unknown
Altitude
Unknown
Speed
Unknown
Apparent Right ascension
Unknown
Apparent Declination
Unknown
Sunlit
N/A
Visualization observer readout
Local Sidereal Time
14:40:07
Azimuth
Unknown
Elevation
Unknown
Doppler factor
Unknown
Orbital elements
Apogee altitude
34,386.903 km
Perigee altitude
10,701.782 km
Semi-major axis
28,922.48 km
Eccentricity
0.40946
Inclination
9.9949°
RAAN
163.0697°
Arg. of periapsis
357.7055°
True anomaly
2.37396°
Mean anomaly
0.9076°
Eccentric anomaly
1.53677°
Mean motion
0.44126 °/min
Orbital period
815.85 mins
BSTAR
0
Loading maneuver chart data...
Computing Atmospheric mass density...
Loading historical data...
Loading historical data...
Loading historical data...
Loading historical data...
Loading historical data...
Loading historical data...
Loading historical data...

Documentation

Showing up to 5 results
|